www.pogodaiklimat.ru
ПОГОДА в Форт Бельвуар
Время
и дата
01:55 14.07
02:55 14.07
03:55 14.07
04:55 14.07
05:55 14.07
06:55 14.07
07:55 14.07
08:55 14.07
09:55 14.07
10:55 14.07
11:55 14.07
12:55 14.07
13:55 14.07
14:55 14.07
15:55 14.07
16:55 14.07
17:55 14.07
18:55 14.07
19:55 14.07
20:55 14.07
21:55 14.07
22:55 14.07
23:55 14.07
00:55 15.07
01:55 15.07
02:55 15.07
03:55 15.07
04:55 15.07
05:55 15.07
06:55 15.07
07:55 15.07
08:55 15.07
09:55 15.07
10:55 15.07
11:55 15.07
12:55 15.07
13:55 15.07
14:55 15.07
15:55 15.07
16:55 15.07
17:01 15.07
17:02 15.07
17:04 15.07
17:18 15.07
17:55 15.07
18:55 15.07
19:55 15.07
20:55 15.07
Ветер
(напр.,м/с)
Видим. Явления Облачность Т
(С)
Тd
(С)
f
(%)
Тe
(С)
Тes
(С)
Комфортность P
(гПа)
Po
(гПа)
Тmin
(С)
Tmax
(С)
R
(мм)
R24
(мм)
S
(см)
штиль 0 16 км 2/0 2700 m
[Ac]
+24.4 +23.7 96 +33 +33 очень
душно
1017.8 1015.0
штиль 0 16 км 5/0 3900 m
[Ac]
+24.3 +23.4 95 +33 +33 очень
душно
1017.5 1014.6
штиль 0 16 км ясно +23.8 +23.1 96 +32 +32 очень
душно
1017.5 1014.6
штиль 0 14 км ясно +23.5 +22.8 96 +31 +31 очень
душно
1017.5 1014.6
штиль 0 16 км 2/0 3000 m
[Ac]
+24.3 +23.4 95 +33 +33 очень
душно
1017.5 1014.6
штиль 0 16 км ясно +26.7 +24.3 87 +37 +39 очень
душно
1017.5 1014.6 +23.0 +26.7 1.0
штиль 0 16 км ясно +29.0 +23.6 73 +40 +44 очень
душно
1017.5 1014.6
З 2 16 км ясно +30.7 +23.6 66 +42 +49 опасность
перегрева
1017.5 1014.6
штиль 0 16 км ясно +32.6 +22.9 57 +43 +58 опасность
перегрева
1017.1 1014.3
З 2 16 км ясно +34.1 +20.8 46 +41 +57 опасность
перегрева
1016.8 1013.9
З 4 16 км ясно +35.1 +19.8 41 +41 +54 опасность
перегрева
1016.1 1013.3
Ю 3 16 км 5/5 1800 м +35.7 +20.4 41 +42 +51 опасность
перегрева
1015.4 1012.6 +26.8 +35.8
Ю 2 16 км ясно +35.6 +20.3 41 +42 +61 опасность
перегрева
1014.7 1011.9
Ю 3 16 км ясно +36.0 +19.4 38 +41 +55 опасность
перегрева
1013.7 1010.9
Ю 3 16 км ясно +36.4 +18.0 34 +40 +51 опасность
солнечного
удара
1013.4 1010.6
Ю 3 16 км ясно +36.2 +17.3 33 +39 +46 очень
душно
1013.4 1010.6
ЮВ 3 16 км ясно +34.9 +18.8 39 +40 +43 очень
душно
1013.4 1010.6
ЮВ 2 16 км ясно +32.8 +20.3 48 +39 +41 очень
душно
1013.4 1010.6 +32.8 +36.8
штиль 0 16 км 5/0 3000 m
[Ac]
+28.5 +22.0 68 +37 +37 очень
душно
1013.4 1010.6
ЮВ 2 16 км 2/0 3000 m
[Ac]
+26.8 +21.7 74 +34 +34 очень
душно
1013.1 1010.2
штиль 0 16 км ясно +25.5 +22.0 81 +33 +33 очень
душно
1012.7 1009.9
штиль 0 16 км 8/0 3000 m
[Ac]
+25.8 +22.7 83 +34 +34 очень
душно
1012.7 1009.9
штиль 0 16 км ясно +25.6 +22.9 85 +34 +34 очень
душно
1012.4 1009.6
штиль 0 16 км ясно +25.5 +23.3 88 +34 +34 очень
душно
1012.4 1009.6 +25.2 +32.7
штиль 0 16 км ясно +24.8 +23.2 91 +33 +33 очень
душно
1012.0 1009.2
штиль 0 16 км ясно +24.7 +22.9 90 +33 +33 очень
душно
1012.0 1009.2
штиль 0 16 км 2/0 4200 m
[Ac]
+25.4 +22.5 84 +33 +33 очень
душно
1012.7 1009.9
штиль 0 16 км 5/0 2400 m
[Ac]
+24.1 +22.1 89 +31 +31 очень
душно
1013.4 1010.6
СЗ 2 16 км 2/0 2550 m
[Ac]
+27.1 +19.9 65 +33 +33 очень
душно
1013.7 1010.9
З 3 16 км ясно +28.6 +19.2 57 +34 +35 очень
душно
1013.7 1010.9 +23.7 +28.6
СЗ 3 16 км ясно +30.9 +19.2 50 +37 +39 очень
душно
1014.1 1011.2
СЗ 6 16 км ясно +32.6 +19.4 46 +38 +41 очень
душно
1013.7 1010.9
СЗ 4 16 км ясно +34.0 +20.3 45 +41 +48 опасность
перегрева
1013.4 1010.6
З 3 16 км ясно +35.0 +20.5 43 +42 +55 опасность
перегрева
1013.0 1010.2
З 3 16 км ясно +36.0 +19.8 39 +42 +57 опасность
перегрева
1012.7 1009.9
Ю 4 16 км ясно +36.4 +20.6 40 +43 +57 опасность
перегрева
1012.0 1009.2 +28.7 +36.7
Ю 4 16 км ясно +36.5 +19.4 37 +42 +55 опасность
перегрева
1011.4 1008.5
Ю 4 16 км ясно +37.3 +20.1 37 +43 +55 опасность
перегрева
1010.3 1007.5
Ю 3 16 км ясно +35.5 +20.2 41 +42 +52 опасность
перегрева
1010.0 1007.2
ЮЗ 2 16 км ясно +34.6 +20.5 44 +41 +50 опасность
перегрева
1010.7 1007.9
З 2 16 км слабый дождь 2/0 2100 m
[Ac As]
+34.0 +21.0 47 +41 +45 опасность
перегрева
1010.7 1007.9
З 2 16 км 2/0 2100 m
[Ac]
+34.0 +21.0 47 +41 +45 опасность
перегрева
1010.7 1007.9
СЗ 2 16 км слабый дождь 2/0 2100 m
[Ac As]
+34.0 +21.0 47 +41 +45 опасность
перегрева
1010.7 1007.9
штиль 0 16 км 2/0 2100 m
[Ac]
+32.0 +19.0 46 +37 +42 очень
душно
1010.3 1007.5
СЗ 3 16 км ясно +32.3 +20.5 50 +39 +43 очень
душно
1010.0 1007.2
штиль 0 16 км ясно +32.3 +18.1 43 +37 +39 очень
душно
1009.3 1006.5 +31.7 +37.4
штиль 0 16 км ясно +29.9 +18.3 50 +35 +35 очень
душно
1010.0 1007.2
штиль 0 16 км ясно +26.4 +20.0 68 +32 +32 очень
душно
1010.3 1007.5
Местоположение метеостанции Davison Army Airfield: широта 38.7167 долгота -77.1833 высота над уровнем моря 21 м.
В архиве по умолчанию представлена погода в Форт Бельвуар за последние 1-2 суток. Обновление информации о фактической погоде в базе происходит ежечасно! Архивные данные за месяц целиком и за предыдущие месяцы Вы можете получить, выбрав интересующий диапазон дат из раскрывающегося списка и нажав кнопку "Ввод!".
Внимание! Архив погоды МЕТАР в базе сайта по станциям, не включенным в климатический монитор, хранится не более 60 дней. Нет смысла пытаться выбрать более раннюю дату.
*Определитесь, кто Вы:
Внимание! Время в таблицах - местное (без учета летнего времени). Для получения всемирного времени необходимо вычесть поправку, которая равна -5 ч.
Смотрите также архив погоды в соседних городах и на ближайших метеорологических станциях:
Партнеры нашего сайта:      
Пояснения к столбцам:
  • Ветер - указаны скорость ветра в м/с - средняя за 10 мин, порывы в срок и между сроками (в фигурных скобках) и направление, откуда дует ветер: С - северный,
  • СВ - северо-восточный, В - восточный, ЮВ - юго-восточный, Ю - южный, ЮЗ - юго-западный, З - западный, СЗ - северо-западный.
  • Видимость - горизонтальная дальность видимости в метрах или километрах. При видимости от 1 до 10 км при отсутствии осадков обычно наблюдается дымка, при ухудшении видимости до 1 км и менее - туман. В сухую погоду видимость может ухудшаться дымом, пылью или мглою.
  • Явления - указаны атмосферные явления, наблюдавшиеся в срок или в последний час перед сроком; фигурными скобками обозначены явления, наблюдавшиеся между сроками (за 1-3 часа до срока); квадратными скобками обозначены град или гололедные отложения с указанием их диаметра в мм.
  • Облачность - указаны через наклонную черту общая и нижняя облачность в баллах и высота нижней границы облаков в метрах; квадратными скобками обозначены формы облаков: Ci - перистые, Cs - перисто-слоистые, Cc - перисто-кучевые, Ac - высококучевые, As - высокослоистые, Sc - слоисто-кучевые, Ns - слоисто-дождевые, Cu - кучевые, Cb - кучево-дождевые. Подробнее классификацию облаков см. в Атласе облаков (PDF).
  • T - Температура воздуха - температура, измеренная на высоте 2 м над землей.
  • Td - Температура точки росы - температура, при понижении до которой содержащийся в воздухе водяной пар достигнет насыщения.
  • f - Относительная влажность воздуха - влажноcть воздуха, измеренная на высоте 2 м над землей.
  • Te - Эффективная температура - температура, которую ощущает одетый по сезону человек в тени. Характеристика душности погоды. При расчете учитывается влияние влажности воздуха и скорости ветра на теплоощущения человека.
  • Tes - Эффективная температура на солнце - температура, которую ощущает человек, с поправкой на солнечный нагрев. Характеристика знойности погоды. Зависит от высоты солнца над горизонтом, облачности и скорости ветра. Ночью, в пасмурную погоду, а также при ветре 12 м/с и более поправка равна нулю.
  • P - Атмосферное давление - приведенное к уровню моря атмосферное давление.
  • Po - Атмосферное давление - измеренное на уровне метеостанции атмосферное давление.
  • Tmin - Минимальная температура - минимум температуры воздуха на высоте 2 м над землей.
  • Tmax - Максимальная температура - максимум температуры воздуха на высоте 2 м над землей.
  • R - Количество осадков - Количество выпавших осадков за период времени, мм. При наведении курсора мыши на число - период времени, за который выпало указанное количество осадков.
  • R24 - Количество осадков - Количество выпавших осадков за 24 часа, мм.
  • S - Снежный покров - Высота снежного покрова, см. При наведении курсора мыши на число - состояние снежного покрова и степень покрытия местности в баллах.